Спрингфилд

США     39°48′00″N   89°39′23″W
В апреле 2022 года жителям России запретили посещать сайт meteo.paraplan.net по решению Генеральной прокуратуры. Аудитория сайта уменьшилась в 10 раз. Владельцы сайта не видят смысла в поддержке погодного сервера в таких условиях. Сайт будет закрыт в октябре.
темп.,
°C
ветер,
м/с
пор.,
м/с
влажн.,
%
обл.,
%
осадки,
мм/ч
давл.,
гПа
погр.,
м
29 сентября, чт
чт2901:00+8вюв36790 0.0 1032109
04:00+6в34860 0.0 103257
07:00+5в33910 0.0 103336
10:00+13в34550 0.0 1032511
13:00+18в33350 0.0 10291195
16:00+20вюв33300 0.0 10261394
19:00+14в22465 0.0 102511
22:00+12вюв33555 0.0 102522
30 сентября, пт
пт3001:00+10в22630 0.0 102510
04:00+9в33660 0.0 102524
07:00+8вюв337634 0.0 102627
10:00+17вюв33520 0.0 1025437
13:00+22в34360 0.0 10231391
16:00+23в44300 0.0 10201498
19:00+17в33430 0.0 101922
22:00+14всв33480 0.0 101921
1 октября, сб
сб101:00+11всв33502 0.0 102043
04:00+10всв33546 0.0 102031
07:00+9св34683 0.0 102159
10:00+17св57390 0.0 1021538
13:00+23св56200 0.0 10191210
16:00+25св56180 0.0 10181515
19:00+18св33310 0.0 101838
22:00+14св411460 0.0 1021190
2 октября, вс
вс201:00+12св39620 0.0 1022163
04:00+10св35750 0.0 102285
07:00+10св35810 0.0 102491
10:00+18всв47400 0.0 1025510
13:00+24св56260 0.0 10241232
16:00+25св56230 0.0 10221641
19:00+19св34380 0.0 102342
22:00+15всв412490 0.0 1023244
3 октября, пн
пн301:00+13св39690 0.0 1024202
04:00+11всв36810 0.0 1024116
07:00+9всв36850 0.0 1025111
10:00+17всв45550 0.0 1025486
13:00+23всв45370 0.0 10231234
16:00+25всв45310 0.0 10211522
19:00+19всв22450 0.0 102114
22:00+17всв33540 0.0 102126